Flag for China Weather past 2 weeks in Suzhou, Jiangsu, China

Now
79 °F

Fog.


Feels Like: 82 °F
Forecast: 72 / 83 °F
Wind: 6 mph from Southwest

Location: Shanghai Hongqiao Airport

Current Time: Sep 2, 2014 at 8:04:34 AM

Latest Report: Sep 2, 2014 at 7:30 AM


Visibility: 2 mi

Pressure: 29.80 "Hg

Humidity: 89%

Dew point: 75 °F

Location of SuzhouLocation

Historic Weather in Suzhou — Graph

°F

Suzhou temperature yesterday

Maximum temperature yesterday: 86 °F (at 11:30 AM)
Minimum temperature yesterday: 77 °F (at 4:00 AM)
Average temperature yesterday: 81 °F

Past Weeks' High & Low Weather Summary

 TemperatureHumidityPressure
High93 °F (Aug 24, 11:30 AM)100% (Aug 18, 10:30 PM)29.98 "Hg (Aug 18, 10:30 PM)
Low68 °F (Aug 21, 4:30 AM)55% (Aug 21, 1:30 PM)29.62 "Hg (Aug 24, 4:00 PM)
Average79 °F83%29.84 "Hg
* Reported Aug 18 7:00 AM — Sep 2 7:00 AM, Suzhou, Weather by CustomWeather, © 2014

Note: Actual official high and low records may vary slightly from our data, if they occured in-between our weather recording intervals... More about our weather records

Advertising

Suzhou weather history for previous 24 hours

 ConditionsComfort  
Time TempWeatherWind HumidityBarometerVisibility
7:00 AM
Sep 2
77 °FFog.6 mph94%29.80 "Hg2 mi
6:30 AM77 °FFog.6 mph94%29.80 "Hg2 mi
6:00 AM75 °FFog.3 mph94%29.80 "Hg2 mi
5:30 AM75 °FFog.3 mph94%29.77 "Hg3 mi
4:30 AM75 °FClear.6 mph94%29.77 "Hg4 mi
4:00 AM75 °FClear.6 mph94%29.77 "Hg10 mi
3:30 AM75 °FClear.6 mph94%29.77 "Hg10 mi
3:00 AM77 °FClear.6 mph89%29.80 "Hg10 mi
2:30 AM77 °FClear.6 mph89%29.80 "Hg10 mi
2:00 AM77 °FClear.6 mph89%29.80 "Hg10 mi
1:30 AM77 °FPassing clouds.6 mph89%29.80 "HgN/A
1:00 AM77 °FPassing clouds.6 mph89%29.80 "HgN/A
12:30 AM77 °FClear.6 mph89%29.80 "Hg10 mi
12:00 AM77 °FClear.6 mph89%29.80 "Hg10 mi
11:30 PM
Sep 1
77 °FPassing clouds.6 mph89%29.80 "HgN/A
11:00 PM77 °FPassing clouds.10 mph89%29.80 "HgN/A
10:30 PM79 °FPassing clouds.10 mph84%29.83 "HgN/A
10:00 PM79 °FPassing clouds.8 mph84%29.83 "HgN/A
9:30 PM79 °FPassing clouds.6 mph84%29.83 "HgN/A
9:00 PM79 °FPassing clouds.8 mph84%29.83 "HgN/A
8:30 PM79 °FPassing clouds.8 mph89%29.83 "HgN/A
8:00 PM79 °FPassing clouds.8 mph89%29.80 "HgN/A
7:30 PM81 °FPassing clouds.10 mph84%29.80 "HgN/A
7:00 PM81 °FPassing clouds.10 mph84%29.77 "HgN/A
6:30 PM81 °FPassing clouds.10 mph84%29.77 "HgN/A
6:00 PM82 °FSunny.8 mph79%29.77 "Hg10 mi
5:30 PM82 °FPassing clouds.8 mph79%29.77 "HgN/A
5:00 PM82 °FSunny.10 mph74%29.77 "Hg10 mi
4:30 PM84 °FPassing clouds.10 mph74%29.77 "HgN/A
4:00 PM84 °FPassing clouds.10 mph74%29.77 "HgN/A
3:30 PM84 °FScattered clouds.10 mph74%29.77 "HgN/A
3:00 PM82 °FScattered clouds.8 mph79%29.77 "HgN/A
2:30 PM82 °FPassing clouds.13 mph79%29.77 "HgN/A
2:00 PM84 °FScattered clouds.10 mph74%29.77 "HgN/A
1:30 PM84 °FPartly sunny.15 mph74%29.74 "HgN/A
1:00 PM86 °FPartly sunny.13 mph75%29.74 "HgN/A
12:30 PM84 °FPartly sunny.15 mph74%29.77 "HgN/A
12:00 PM86 °FPartly sunny.17 mph70%29.77 "HgN/A
11:30 AM86 °FPartly sunny.17 mph70%29.77 "HgN/A
11:00 AM84 °FScattered clouds.17 mph74%29.77 "HgN/A
10:30 AM84 °FScattered clouds.15 mph79%29.77 "HgN/A
10:00 AM84 °FScattered clouds.15 mph74%29.77 "HgN/A
9:30 AM82 °FScattered clouds.15 mph79%29.80 "HgN/A
9:00 AM81 °FScattered clouds.10 mph84%29.80 "HgN/A
8:30 AM81 °FScattered clouds.10 mph84%29.80 "HgN/A
8:00 AM79 °FPassing clouds.8 mph89%29.77 "Hg4 mi
Weather by CustomWeather, © 2014

See weather overviewHow to use our weather pages